Time,TemperatureF,DewpointF,PressureIn,WindDirection,WindDirectionDegrees,WindSpeedMPH,WindSpeedGustMPH,Humidity,HourlyPrecipIn,Conditions,Clouds,dailyrainin,SoftwareType,DateUTC
2013-08-05 00:02:00,56.0,55.0,30.12,NNE,28,0.0,0.0,98,0.00,,,-99.99,,2013-08-05 04:02:00,
2013-08-05 00:12:00,56.0,55.0,30.12,NNE,28,0.0,0.0,98,0.00,,,-99.99,,2013-08-05 04:12:00,
2013-08-05 00:22:00,56.0,55.0,30.12,NNE,28,0.0,0.0,98,0.00,,,-99.99,,2013-08-05 04:22:00,
2013-08-05 00:32:00,56.0,55.0,30.12,NNE,28,0.0,0.0,98,0.00,,,-99.99,,2013-08-05 04:32:00,
2013-08-05 00:43:00,56.0,55.0,30.12,NNE,28,0.0,0.0,98,0.00,,,-99.99,,2013-08-05 04:43:00,
2013-08-05 00:52:00,56.0,55.0,30.11,NNE,28,0.0,0.0,98,0.00,,,-99.99,,2013-08-05 04:52:00,
2013-08-05 01:02:00,56.0,55.0,30.11,NNE,28,0.0,0.0,98,0.00,,,-99.99,,2013-08-05 05:02:00,
2013-08-05 01:12:00,56.0,55.0,30.11,NNE,28,0.0,0.0,98,0.00,,,-99.99,,2013-08-05 05:12:00,
2013-08-05 01:22:00,56.0,55.0,30.11,NNE,28,0.0,0.0,98,0.00,,,-99.99,,2013-08-05 05:22:00,
2013-08-05 01:32:00,56.0,55.0,30.11,NNE,28,0.0,0.0,98,0.00,,,-99.99,,2013-08-05 05:32:00,
2013-08-05 01:43:00,56.0,55.0,30.11,NNE,28,0.0,0.0,98,0.00,,,-99.99,,2013-08-05 05:43:00,
2013-08-05 01:53:00,56.0,55.0,30.11,NNE,28,0.0,0.0,98,0.00,,,-99.99,,2013-08-05 05:53:00,
2013-08-05 02:02:00,56.0,55.0,30.11,NNE,28,0.0,0.0,98,0.00,,,-99.99,,2013-08-05 06:02:00,
2013-08-05 02:12:00,56.0,55.0,30.11,NNE,28,0.0,0.0,98,0.00,,,-99.99,,2013-08-05 06:12:00,
2013-08-05 02:22:00,56.0,55.0,30.11,NNE,28,0.0,0.0,98,0.00,,,-99.99,,2013-08-05 06:22:00,
2013-08-05 02:32:00,56.0,55.0,30.11,NNE,28,0.0,0.0,98,0.00,,,-99.99,,2013-08-05 06:32:00,
2013-08-05 02:42:00,56.0,55.0,30.11,NNE,28,0.0,0.0,98,0.00,,,-99.99,,2013-08-05 06:42:00,
2013-08-05 02:52:00,56.0,55.0,30.10,NNE,28,0.0,0.0,98,0.00,,,-99.99,,2013-08-05 06:52:00,
2013-08-05 03:02:00,56.0,55.0,30.10,NNE,28,0.0,0.0,98,0.00,,,-99.99,,2013-08-05 07:02:00,
2013-08-05 03:12:00,56.0,55.0,30.10,NNE,28,0.0,0.0,98,0.00,,,-99.99,,2013-08-05 07:12:00,
2013-08-05 03:22:00,56.0,55.0,30.10,NNE,28,0.0,0.0,98,0.00,,,-99.99,,2013-08-05 07:22:00,
2013-08-05 03:32:00,56.0,55.0,30.10,NNE,28,0.0,0.0,98,0.00,,,-99.99,,2013-08-05 07:32:00,
2013-08-05 03:43:00,56.0,55.0,30.09,NNE,28,0.0,0.0,98,0.00,,,-99.99,,2013-08-05 07:43:00,
2013-08-05 03:53:00,55.0,54.0,30.09,NNE,28,0.0,0.0,98,0.00,,,-99.99,,2013-08-05 07:53:00,
2013-08-05 04:02:00,55.0,54.0,30.09,NNE,28,0.0,0.0,98,0.00,,,-99.99,,2013-08-05 08:02:00,
2013-08-05 04:12:00,55.0,54.0,30.08,NNE,28,0.0,0.0,98,0.00,,,-99.99,,2013-08-05 08:12:00,
2013-08-05 04:22:00,55.0,54.0,30.09,NNE,28,0.0,0.0,98,0.00,,,-99.99,,2013-08-05 08:22:00,
2013-08-05 04:27:00,56.0,55.0,30.08,NNE,28,0.0,0.0,97,0.00,,,-99.99,,2013-08-05 08:27:00,
2013-08-05 04:34:00,55.0,54.0,30.09,NNE,28,0.0,0.0,98,0.00,,,-99.99,,2013-08-05 08:34:00,
2013-08-05 04:49:00,56.0,55.0,30.08,NNE,28,0.0,0.0,97,0.00,,,-99.99,,2013-08-05 08:49:00,
2013-08-05 05:06:00,56.0,55.0,30.08,NNE,28,0.0,0.0,97,0.00,,,-99.99,,2013-08-05 09:06:00,
2013-08-05 05:42:00,56.0,55.0,30.08,NNE,28,0.0,0.0,97,0.00,,,-99.99,,2013-08-05 09:42:00,
2013-08-05 05:48:00,56.0,55.0,30.08,NNE,28,0.0,0.0,97,0.00,,,-99.99,,2013-08-05 09:48:00,
2013-08-05 05:53:00,56.0,55.0,30.07,NNE,28,0.0,0.0,97,0.00,,,-99.99,,2013-08-05 09:53:00,
2013-08-05 06:10:00,56.0,55.0,30.07,NNE,28,0.0,0.0,97,0.00,,,-99.99,,2013-08-05 10:10:00,
2013-08-05 06:16:00,55.0,54.0,30.08,NNE,28,0.0,0.0,98,0.00,,,-99.99,,2013-08-05 10:16:00,
2013-08-05 06:28:00,55.0,54.0,30.08,NNE,28,0.0,0.0,98,0.00,,,-99.99,,2013-08-05 10:28:00,
2013-08-05 06:34:00,55.0,54.0,30.08,NNE,28,0.0,0.0,98,0.00,,,-99.99,,2013-08-05 10:34:00,
2013-08-05 06:53:00,55.0,54.0,30.09,NNE,28,0.0,0.0,98,0.00,,,-99.99,,2013-08-05 10:53:00,
2013-08-05 07:09:00,55.0,54.0,30.09,NNE,28,0.0,0.0,98,0.00,,,-99.99,,2013-08-05 11:09:00,
2013-08-05 07:29:00,55.0,54.0,30.10,NNE,28,0.0,0.0,98,0.00,,,-99.99,,2013-08-05 11:29:00,
2013-08-05 07:38:00,55.0,54.0,30.10,NNE,28,0.0,0.0,97,0.00,,,-99.99,,2013-08-05 11:38:00,
2013-08-05 08:17:00,56.0,55.0,30.10,NNE,28,0.0,0.0,97,0.00,,,-99.99,,2013-08-05 12:17:00,
2013-08-05 08:28:00,56.0,55.0,30.10,NNE,28,0.0,0.0,97,0.00,,,-99.99,,2013-08-05 12:28:00,
2013-08-05 08:33:00,57.0,56.0,30.11,NNE,28,0.0,0.0,96,0.00,,,-99.99,,2013-08-05 12:33:00,
2013-08-05 08:49:00,57.0,56.0,30.11,NNE,28,0.0,0.0,96,0.00,,,-99.99,,2013-08-05 12:49:00,
2013-08-05 09:03:00,58.0,57.0,30.11,NNE,28,0.0,0.0,96,0.00,,,-99.99,,2013-08-05 13:03:00,
2013-08-05 09:13:00,58.0,57.0,30.11,NNE,28,0.0,0.0,96,0.00,,,-99.99,,2013-08-05 13:13:00,
2013-08-05 09:39:00,59.0,58.0,30.11,NNE,28,0.0,0.0,95,0.00,,,-99.99,,2013-08-05 13:39:00,
2013-08-05 09:54:00,59.0,58.0,30.11,NNE,28,0.0,0.0,95,0.00,,,-99.99,,2013-08-05 13:54:00,
2013-08-05 10:06:00,62.0,60.0,30.11,NNE,28,0.0,0.0,93,0.00,,,-99.99,,2013-08-05 14:06:00,
2013-08-05 10:17:00,62.0,60.0,30.11,NNE,28,0.0,0.0,94,0.00,,,-99.99,,2013-08-05 14:17:00,
2013-08-05 10:28:00,62.0,60.0,30.11,NNE,28,0.0,0.0,94,0.00,,,-99.99,,2013-08-05 14:28:00,
2013-08-05 10:48:00,63.0,61.0,30.11,NNE,28,0.0,0.0,92,0.00,,,-99.99,,2013-08-05 14:48:00,
2013-08-05 10:54:00,63.0,60.0,30.11,NNE,28,0.0,0.0,91,0.00,,,-99.99,,2013-08-05 14:54:00,
2013-08-05 11:08:00,63.0,61.0,30.12,NNE,28,0.0,0.0,94,0.00,,,-99.99,,2013-08-05 15:08:00,
2013-08-05 11:15:00,63.0,61.0,30.12,NNE,28,0.0,0.0,94,0.00,,,-99.99,,2013-08-05 15:15:00,
2013-08-05 11:24:00,63.0,61.0,30.12,NNE,28,0.0,0.0,94,0.00,,,-99.99,,2013-08-05 15:24:00,
2013-08-05 11:47:00,65.0,62.0,30.12,NNE,28,0.0,0.0,89,0.00,,,-99.99,,2013-08-05 15:47:00,
2013-08-05 11:59:00,64.0,61.0,30.12,NNE,28,0.0,0.0,91,0.00,,,-99.99,,2013-08-05 15:59:00,
2013-08-05 12:10:00,64.0,61.0,30.12,NNE,28,0.0,0.0,91,0.00,,,-99.99,,2013-08-05 16:10:00,
2013-08-05 12:17:00,64.0,61.0,30.12,NNE,28,0.0,0.0,91,0.00,,,-99.99,,2013-08-05 16:17:00,
2013-08-05 12:26:00,64.0,61.0,30.12,NNE,28,0.0,0.0,91,0.00,,,-99.99,,2013-08-05 16:26:00,
2013-08-05 12:33:00,64.0,61.0,30.12,NNE,28,0.0,0.0,91,0.00,,,-99.99,,2013-08-05 16:33:00,
2013-08-05 13:08:00,68.0,64.0,30.11,NNE,28,0.0,0.0,87,0.00,,,-99.99,,2013-08-05 17:08:00,
2013-08-05 13:37:00,69.0,63.0,30.11,NNE,28,0.0,0.0,81,0.00,,,-99.99,,2013-08-05 17:37:00,
2013-08-05 13:48:00,69.0,63.0,30.10,NNE,28,0.0,0.0,81,0.00,,,-99.99,,2013-08-05 17:48:00,
2013-08-05 13:57:00,69.0,63.0,30.10,NNE,28,0.0,0.0,81,0.00,,,-99.99,,2013-08-05 17:57:00,
2013-08-05 14:08:00,70.0,64.0,30.10,NNE,28,0.0,0.0,81,0.00,,,-99.99,,2013-08-05 18:08:00,
2013-08-05 14:13:00,70.0,64.0,30.10,NNE,28,0.0,0.0,81,0.00,,,-99.99,,2013-08-05 18:13:00,
2013-08-05 14:38:00,69.0,64.0,30.09,NNE,28,0.0,0.0,83,0.00,,,-99.99,,2013-08-05 18:38:00,
2013-08-05 14:54:00,71.0,65.0,30.09,NNE,28,0.0,0.0,80,0.00,,,-99.99,,2013-08-05 18:54:00,
2013-08-05 15:05:00,71.0,65.0,30.09,NNE,28,0.0,0.0,80,0.00,,,-99.99,,2013-08-05 19:05:00,
2013-08-05 15:14:00,71.0,65.0,30.09,NNE,28,0.0,0.0,80,0.00,,,-99.99,,2013-08-05 19:14:00,
2013-08-05 15:26:00,71.0,65.0,30.09,NNE,28,0.0,0.0,80,0.00,,,-99.99,,2013-08-05 19:26:00,
2013-08-05 15:39:00,71.0,65.0,30.09,NNE,28,0.0,0.0,81,0.00,,,-99.99,,2013-08-05 19:39:00,
2013-08-05 15:54:00,71.0,65.0,30.09,NNE,28,0.0,0.0,81,0.00,,,-99.99,,2013-08-05 19:54:00,
2013-08-05 16:09:00,71.0,64.0,30.08,NNE,28,0.0,0.0,78,0.00,,,-99.99,,2013-08-05 20:09:00,
2013-08-05 16:15:00,71.0,64.0,30.08,NNE,28,0.0,0.0,78,0.00,,,-99.99,,2013-08-05 20:15:00,
2013-08-05 16:28:00,70.0,64.0,30.09,NNE,28,0.0,0.0,80,0.00,,,-99.99,,2013-08-05 20:28:00,
2013-08-05 16:38:00,70.0,64.0,30.09,NNE,28,0.0,0.0,80,0.00,,,-99.99,,2013-08-05 20:38:00,
2013-08-05 16:48:00,71.0,65.0,30.08,NNE,28,0.0,0.0,80,0.00,,,-99.99,,2013-08-05 20:48:00,
2013-08-05 17:09:00,71.0,64.0,30.07,NNE,28,0.0,0.0,79,0.00,,,-99.99,,2013-08-05 21:09:00,
2013-08-05 17:19:00,70.0,65.0,30.07,NNE,28,0.0,0.0,83,0.00,,,-99.99,,2013-08-05 21:19:00,
2013-08-05 17:26:00,70.0,65.0,30.07,NNE,28,0.0,0.0,83,0.00,,,-99.99,,2013-08-05 21:26:00,
2013-08-05 17:34:00,70.0,65.0,30.07,NNE,28,0.0,0.0,83,0.00,,,-99.99,,2013-08-05 21:34:00,
2013-08-05 17:47:00,69.0,64.0,30.06,NNE,28,0.0,0.0,83,0.00,,,-99.99,,2013-08-05 21:47:00,
2013-08-05 17:53:00,69.0,64.0,30.06,NNE,28,0.0,0.0,85,0.00,,,-99.99,,2013-08-05 21:53:00,
2013-08-05 18:05:00,69.0,64.0,30.06,NNE,28,0.0,0.0,85,0.00,,,-99.99,,2013-08-05 22:05:00,
2013-08-05 18:15:00,68.0,64.0,30.07,NNE,28,0.0,0.0,86,0.00,,,-99.99,,2013-08-05 22:15:00,
2013-08-05 18:37:00,67.0,64.0,30.07,NNE,28,0.0,0.0,91,0.00,,,-99.99,,2013-08-05 22:37:00,
2013-08-05 18:44:00,66.0,64.0,30.07,NNE,28,0.0,0.0,93,0.00,,,-99.99,,2013-08-05 22:44:00,
2013-08-05 18:53:00,66.0,65.0,30.06,NNE,28,0.0,0.0,95,0.00,,,-99.99,,2013-08-05 22:53:00,
2013-08-05 19:07:00,66.0,65.0,30.06,NNE,28,0.0,0.0,95,0.00,,,-99.99,,2013-08-05 23:07:00,
2013-08-05 19:16:00,66.0,65.0,30.06,NNE,28,0.0,0.0,96,0.00,,,-99.99,,2013-08-05 23:16:00,
2013-08-05 19:27:00,65.0,64.0,30.06,NNE,28,0.0,0.0,96,0.00,,,-99.99,,2013-08-05 23:27:00,
2013-08-05 19:33:00,65.0,64.0,30.06,NNE,28,0.0,0.0,97,0.00,,,-99.99,,2013-08-05 23:33:00,
2013-08-05 19:46:00,64.0,63.0,30.06,NNE,28,0.0,0.0,97,0.00,,,-99.99,,2013-08-05 23:46:00,
2013-08-05 19:57:00,64.0,63.0,30.06,NNE,28,0.0,0.0,98,0.01,,,-99.99,,2013-08-05 23:57:00,
2013-08-05 20:02:00,63.0,62.0,30.07,NNE,28,0.0,0.0,98,0.01,,,-99.99,,2013-08-06 00:02:00,
2013-08-05 20:15:00,63.0,62.0,30.07,NNE,28,0.0,0.0,98,0.01,,,-99.99,,2013-08-06 00:15:00,
2013-08-05 20:24:00,63.0,62.0,30.07,NNE,28,0.0,0.0,98,0.01,,,-99.99,,2013-08-06 00:24:00,
2013-08-05 20:37:00,63.0,62.0,30.07,NNE,28,0.0,0.0,98,0.01,,,-99.99,,2013-08-06 00:37:00,
2013-08-05 20:45:00,63.0,62.0,30.07,NNE,28,0.0,0.0,98,0.01,,,-99.99,,2013-08-06 00:45:00,
2013-08-05 20:57:00,63.0,62.0,30.07,NNE,28,0.0,0.0,98,0.00,,,-99.99,,2013-08-06 00:57:00,
2013-08-05 21:09:00,62.0,61.0,30.07,NNE,28,0.0,0.0,98,0.00,,,-99.99,,2013-08-06 01:09:00,
2013-08-05 21:28:00,61.0,60.0,30.08,NNE,28,0.0,0.0,98,0.00,,,-99.99,,2013-08-06 01:28:00,
2013-08-05 21:49:00,61.0,60.0,30.08,NNE,28,0.0,0.0,98,0.00,,,-99.99,,2013-08-06 01:49:00,
2013-08-05 22:02:00,61.0,60.0,30.08,NNE,28,0.0,0.0,98,0.00,,,-99.99,,2013-08-06 02:02:00,
2013-08-05 22:15:00,60.0,59.0,30.08,NNE,28,0.0,0.0,98,0.00,,,-99.99,,2013-08-06 02:15:00,
2013-08-05 22:33:00,60.0,59.0,30.08,NNE,28,0.0,0.0,98,0.00,,,-99.99,,2013-08-06 02:33:00,
2013-08-05 22:52:00,59.0,58.0,30.08,NNE,28,0.0,0.0,98,0.00,,,-99.99,,2013-08-06 02:52:00,
2013-08-05 23:02:00,59.0,58.0,30.08,NNE,28,0.0,0.0,98,0.00,,,-99.99,,2013-08-06 03:02:00,
2013-08-05 23:26:00,59.0,58.0,30.08,NNE,28,0.0,0.0,98,0.00,,,-99.99,,2013-08-06 03:26:00,
2013-08-05 23:35:00,59.0,58.0,30.08,NNE,28,0.0,0.0,98,0.00,,,-99.99,,2013-08-06 03:35:00,
2013-08-05 23:45:00,59.0,58.0,30.07,NNE,28,0.0,0.0,98,0.00,,,-99.99,,2013-08-06 03:45:00,
2013-08-05 23:52:00,59.0,58.0,30.07,NNE,28,0.0,0.0,98,0.00,,,-99.99,,2013-08-06 03:52:00,